Tracking 19219 objects as of 20-Jul-2018
HD Live streaming from Space Station
objects crossing your sky now

METEOR 1-13

Track METEOR 1-13 now!
10-day predictions
METEOR 1-13 is classified as:


NORAD ID: 6256
Int'l Code: 1972-085A
Perigee: 850.8 km
Apogee: 889.9 km
Inclination: 81.3 °
Period: 102.2 minutes
Semi major axis: 7241 km
RCS: 4.603 m2 (large)
Launch date: October 26, 1972
Source: Commonwealth of Independent States (former USSR) (CIS)
Launch site: PLESETSK MISSILE AND SPACE COMPLEX (PKMTR)
aabbcc
Your satellite tracking list
Your tracking list is empty




NASA's NSSDC Master Catalog

Two Line Element Set (TLE):
1 06256U 72085A   18201.71536433 -.00000077  00000-0 -51960-4 0  9996
2 06256  81.2715  71.1604 0026999  65.4603 294.9377 14.08885861348738
Source of the keplerian elements: AFSPC